VOZ1334 YMML-YMHB

Flight info

Callsign VOZ1334
Flight time 1h 3m
Altitude 35000
Route SUNTI H169 IRSOM V33 MORGO
Aircraft B738/M-SAE3DGHIM1RWZ/LB1

Departure

Time 2026-05-08 07:49
Airport Melbourne Airport (YMML)

Arrival

Time 2026-05-08 08:52
Airport Hobart International Airport (YMHB)
Time Latitude Longitude Altitude Speed Heading
2026-05-08 07:18 -37.67140 144.84541 386 ft 0 kts 351°
2026-05-08 07:35 -37.67142 144.84541 386 ft 1 kts 351°
2026-05-08 07:36 -37.67157 144.84544 386 ft 3 kts 14°
2026-05-08 07:36 -37.67175 144.84536 385 ft 3 kts 11°
2026-05-08 07:36 -37.67193 144.84535 385 ft 3 kts 335°
2026-05-08 07:36 -37.67206 144.84548 385 ft 3 kts 284°
2026-05-08 07:37 -37.67207 144.84565 385 ft 1 kts 262°
2026-05-08 07:39 -37.67209 144.84547 384 ft 6 kts 262°
2026-05-08 07:39 -37.67200 144.84434 383 ft 19 kts 275°
2026-05-08 07:40 -37.67178 144.84275 381 ft 19 kts 321°
2026-05-08 07:40 -37.67056 144.84241 384 ft 18 kts 353°
2026-05-08 07:40 -37.66935 144.84219 386 ft 17 kts 350°
2026-05-08 07:40 -37.66876 144.84209 388 ft 0 kts 352°
2026-05-08 07:41 -37.66872 144.84208 388 ft 4 kts 352°
2026-05-08 07:41 -37.66834 144.84201 390 ft 4 kts 351°
2026-05-08 07:41 -37.66833 144.84201 390 ft 0 kts 351°
2026-05-08 07:42 -37.66816 144.84198 390 ft 8 kts 352°
2026-05-08 07:43 -37.66726 144.84180 388 ft 17 kts 351°
2026-05-08 07:43 -37.66593 144.84178 399 ft 21 kts 22°
2026-05-08 07:43 -37.66526 144.84327 402 ft 20 kts 80°
2026-05-08 07:43 -37.66505 144.84502 404 ft 20 kts 82°
2026-05-08 07:44 -37.66485 144.84670 406 ft 19 kts 79°
2026-05-08 07:44 -37.66400 144.84779 409 ft 17 kts
2026-05-08 07:44 -37.66360 144.84784 410 ft 0 kts
2026-05-08 07:45 -37.66350 144.84785 408 ft 4 kts
2026-05-08 07:45 -37.66280 144.84791 409 ft 16 kts
2026-05-08 07:46 -37.66223 144.84736 412 ft 3 kts 277°
2026-05-08 07:46 -37.66223 144.84735 412 ft 0 kts 277°
2026-05-08 07:48 -37.66213 144.84586 410 ft 54 kts 274°
2026-05-08 07:48 -37.66165 144.83742 413 ft 135 kts 274°
2026-05-08 07:48 -37.66064 144.82322 720 ft 178 kts 269°
2026-05-08 07:49 -37.65969 144.80772 1981 ft 173 kts 268°
2026-05-08 07:49 -37.65895 144.79238 2995 ft 180 kts 266°
2026-05-08 07:49 -37.65828 144.77573 3494 ft 200 kts 265°
2026-05-08 07:49 -37.65793 144.76375 3773 ft 212 kts 264°
2026-05-08 07:50 -37.65693 144.73771 4339 ft 242 kts 268°
2026-05-08 07:50 -37.65580 144.71553 4983 ft 252 kts 259°
2026-05-08 07:50 -37.66120 144.69536 5635 ft 255 kts 230°
2026-05-08 07:50 -37.67452 144.67911 5893 ft 281 kts 219°
2026-05-08 07:51 -37.69085 144.66393 6312 ft 299 kts 211°
2026-05-08 07:51 -37.70297 144.65460 6822 ft 305 kts 210°
2026-05-08 07:51 -37.72233 144.64335 7572 ft 310 kts 194°
2026-05-08 07:51 -37.75074 144.64399 8829 ft 315 kts 170°
2026-05-08 07:52 -37.77141 144.65416 9626 ft 325 kts 155°
2026-05-08 07:52 -37.78476 144.66380 10205 ft 328 kts 153°
2026-05-08 07:52 -37.80446 144.67864 10971 ft 332 kts 153°
2026-05-08 07:52 -37.82430 144.69382 11741 ft 335 kts 153°
2026-05-08 07:53 -37.84435 144.70917 12499 ft 338 kts 153°
2026-05-08 07:53 -37.86460 144.72458 13271 ft 341 kts 153°
2026-05-08 07:53 -37.88504 144.74004 14023 ft 345 kts 153°
2026-05-08 07:53 -37.90571 144.75566 14687 ft 349 kts 153°
2026-05-08 07:54 -37.92689 144.77173 15026 ft 362 kts 152°
2026-05-08 07:54 -37.94845 144.78814 15819 ft 360 kts 152°
2026-05-08 07:54 -37.97000 144.80451 16522 ft 363 kts 152°
2026-05-08 07:54 -37.99181 144.82097 17100 ft 368 kts 152°
2026-05-08 07:55 -38.01400 144.83770 17675 ft 373 kts 152°
2026-05-08 07:55 -38.03639 144.85458 18253 ft 377 kts 152°
2026-05-08 07:55 -38.05911 144.87174 18784 ft 382 kts 152°
2026-05-08 07:55 -38.08198 144.88905 19338 ft 384 kts 152°
2026-05-08 07:56 -38.10470 144.90627 19927 ft 385 kts 152°
2026-05-08 07:56 -38.12806 144.92399 20501 ft 388 kts 152°
2026-05-08 07:56 -38.15133 144.94164 21047 ft 390 kts 152°
2026-05-08 07:56 -38.17442 144.95918 21578 ft 393 kts 151°
2026-05-08 07:57 -38.19789 144.97702 22115 ft 395 kts 151°
2026-05-08 07:57 -38.22156 144.99502 22626 ft 397 kts 151°
2026-05-08 07:57 -38.24532 145.01310 23160 ft 399 kts 151°
2026-05-08 07:57 -38.26913 145.03124 23756 ft 399 kts 151°
2026-05-08 07:58 -38.29301 145.04944 24159 ft 402 kts 151°
2026-05-08 07:58 -38.31713 145.06784 24537 ft 405 kts 151°
2026-05-08 07:58 -38.34136 145.08633 24946 ft 407 kts 151°
2026-05-08 07:58 -38.36568 145.10492 25350 ft 409 kts 151°
2026-05-08 07:59 -38.39013 145.12362 25738 ft 411 kts 151°
2026-05-08 07:59 -38.41469 145.14242 26119 ft 413 kts 151°
2026-05-08 07:59 -38.43939 145.16134 26518 ft 414 kts 151°
2026-05-08 07:59 -38.46413 145.18031 26933 ft 415 kts 151°
2026-05-08 08:00 -38.48893 145.19933 27283 ft 417 kts 151°
2026-05-08 08:00 -38.51414 145.21773 27608 ft 419 kts 156°
2026-05-08 08:00 -38.54131 145.23127 27951 ft 419 kts 162°
2026-05-08 08:00 -38.56898 145.24314 28295 ft 421 kts 163°
2026-05-08 08:01 -38.59693 145.25471 28612 ft 423 kts 163°
2026-05-08 08:01 -38.62495 145.26635 28945 ft 425 kts 163°
2026-05-08 08:01 -38.65302 145.27821 29404 ft 423 kts 162°
2026-05-08 08:01 -38.68076 145.29012 30009 ft 419 kts 162°
2026-05-08 08:02 -38.70823 145.30208 30586 ft 413 kts 162°
2026-05-08 08:02 -38.73531 145.31396 30988 ft 412 kts 162°
2026-05-08 08:02 -38.76240 145.32590 31290 ft 412 kts 162°
2026-05-08 08:02 -38.78955 145.33789 31625 ft 412 kts 162°
2026-05-08 08:03 -38.81651 145.34983 32039 ft 409 kts 162°
2026-05-08 08:03 -38.84336 145.36172 32464 ft 406 kts 162°
2026-05-08 08:03 -38.87002 145.37354 32840 ft 405 kts 162°
2026-05-08 08:03 -38.89663 145.38534 33202 ft 404 kts 162°
2026-05-08 08:04 -38.92298 145.39703 33671 ft 399 kts 162°
2026-05-08 08:04 -38.94916 145.40866 34096 ft 397 kts 162°
2026-05-08 08:04 -38.97486 145.42008 34378 ft 396 kts 162°
2026-05-08 08:04 -39.00095 145.43168 34593 ft 397 kts 162°
2026-05-08 08:05 -39.02712 145.44333 34785 ft 398 kts 162°
2026-05-08 08:05 -39.05295 145.45483 35031 ft 398 kts 162°
2026-05-08 08:05 -39.07904 145.46646 35229 ft 399 kts 162°
2026-05-08 08:06 -39.13184 145.49002 35215 ft 402 kts 162°
2026-05-08 08:06 -39.18421 145.51344 35200 ft 394 kts 162°
2026-05-08 08:07 -39.23658 145.53284 35234 ft 391 kts 166°
2026-05-08 08:07 -39.28749 145.55785 35209 ft 391 kts 160°
2026-05-08 08:08 -39.33841 145.58248 35206 ft 391 kts 162°
2026-05-08 08:08 -39.38969 145.60579 35206 ft 391 kts 162°
2026-05-08 08:09 -39.44108 145.62887 35203 ft 391 kts 162°
2026-05-08 08:09 -39.49248 145.65201 35205 ft 391 kts 162°
2026-05-08 08:10 -39.54365 145.67512 35205 ft 392 kts 162°
2026-05-08 08:10 -39.59517 145.69843 35197 ft 393 kts 162°
2026-05-08 08:11 -39.64676 145.72183 35218 ft 393 kts 162°
2026-05-08 08:11 -39.69840 145.74528 35197 ft 393 kts 162°
2026-05-08 08:12 -39.74999 145.76874 35186 ft 393 kts 162°
2026-05-08 08:12 -39.80152 145.79221 35183 ft 392 kts 162°
2026-05-08 08:13 -39.85297 145.81569 35208 ft 391 kts 162°
2026-05-08 08:13 -39.90429 145.83915 35186 ft 391 kts 162°
2026-05-08 08:14 -39.95554 145.86260 35177 ft 390 kts 162°
2026-05-08 08:14 -40.00642 145.88593 35164 ft 389 kts 162°
2026-05-08 08:15 -40.05733 145.90948 35175 ft 388 kts 162°
2026-05-08 08:15 -40.10809 145.93305 35176 ft 387 kts 162°
2026-05-08 08:16 -40.15879 145.95661 35170 ft 387 kts 162°
2026-05-08 08:16 -40.20942 145.98018 35172 ft 386 kts 162°
2026-05-08 08:17 -40.25839 146.00300 35166 ft 386 kts 162°
2026-05-08 08:17 -40.30889 146.02658 35169 ft 385 kts 162°
2026-05-08 08:18 -40.35939 146.05019 35164 ft 385 kts 162°
2026-05-08 08:18 -40.40990 146.07385 35158 ft 386 kts 162°
2026-05-08 08:19 -40.46041 146.09754 35143 ft 386 kts 161°
2026-05-08 08:19 -40.51096 146.12129 35166 ft 386 kts 162°
2026-05-08 08:20 -40.56157 146.14511 35160 ft 386 kts 162°
2026-05-08 08:20 -40.61216 146.16896 35150 ft 386 kts 162°
2026-05-08 08:21 -40.66271 146.19282 35144 ft 386 kts 162°
2026-05-08 08:21 -40.71322 146.21670 35161 ft 385 kts 161°
2026-05-08 08:22 -40.76367 146.24054 35139 ft 385 kts 161°
2026-05-08 08:22 -40.81407 146.26438 35137 ft 384 kts 161°
2026-05-08 08:23 -40.86436 146.28822 35137 ft 384 kts 161°
2026-05-08 08:23 -40.91452 146.31205 35147 ft 383 kts 161°
2026-05-08 08:24 -40.96466 146.33589 35128 ft 382 kts 161°
2026-05-08 08:24 -41.01413 146.35947 35132 ft 381 kts 161°
2026-05-08 08:25 -41.06441 146.38346 34837 ft 386 kts 161°
2026-05-08 08:25 -41.08929 146.39535 34506 ft 382 kts 161°
2026-05-08 08:25 -41.11419 146.40727 34005 ft 379 kts 161°
2026-05-08 08:25 -41.13883 146.41906 33541 ft 375 kts 161°
2026-05-08 08:26 -41.16321 146.43075 33050 ft 371 kts 161°
2026-05-08 08:26 -41.18685 146.44395 32584 ft 368 kts 157°
2026-05-08 08:26 -41.20995 146.45836 32134 ft 365 kts 156°
2026-05-08 08:26 -41.23274 146.47287 31700 ft 362 kts 156°
2026-05-08 08:27 -41.25530 146.48728 31279 ft 359 kts 156°
2026-05-08 08:27 -41.27772 146.50156 30844 ft 356 kts 156°
2026-05-08 08:27 -41.29995 146.51568 30440 ft 353 kts 156°
2026-05-08 08:27 -41.32201 146.52966 30005 ft 350 kts 156°
2026-05-08 08:28 -41.34396 146.54355 29542 ft 348 kts 156°
2026-05-08 08:28 -41.36567 146.55729 29113 ft 344 kts 156°
2026-05-08 08:28 -41.38719 146.57091 28675 ft 341 kts 156°
2026-05-08 08:28 -41.40850 146.58441 28262 ft 337 kts 157°
2026-05-08 08:29 -41.42962 146.59779 27825 ft 335 kts 157°
2026-05-08 08:29 -41.45055 146.61106 27410 ft 332 kts 157°
2026-05-08 08:29 -41.47128 146.62420 27024 ft 329 kts 157°
2026-05-08 08:29 -41.49191 146.63731 26618 ft 328 kts 157°
2026-05-08 08:30 -41.51251 146.65040 26220 ft 327 kts 157°
2026-05-08 08:30 -41.53304 146.66345 25831 ft 327 kts 158°
2026-05-08 08:30 -41.57514 146.69021 25009 ft 342 kts 158°
2026-05-08 08:31 -41.59658 146.70388 24577 ft 341 kts 158°
2026-05-08 08:31 -41.61791 146.71750 24162 ft 340 kts 158°
2026-05-08 08:31 -41.63923 146.73110 23732 ft 339 kts 158°
2026-05-08 08:31 -41.66051 146.74472 23055 ft 342 kts 158°
2026-05-08 08:32 -41.68207 146.75860 22500 ft 343 kts 158°
2026-05-08 08:32 -41.70352 146.77247 22024 ft 342 kts 158°
2026-05-08 08:32 -41.72484 146.78629 21614 ft 338 kts 158°
2026-05-08 08:32 -41.74593 146.79997 21211 ft 335 kts 158°
2026-05-08 08:33 -41.76682 146.81353 20842 ft 332 kts 158°
2026-05-08 08:33 -41.78755 146.82698 20448 ft 330 kts 158°
2026-05-08 08:33 -41.80811 146.84032 20073 ft 327 kts 158°
2026-05-08 08:33 -41.82855 146.85359 19689 ft 325 kts 158°
2026-05-08 08:34 -41.84894 146.86683 19230 ft 326 kts 158°
2026-05-08 08:34 -41.86898 146.87985 18849 ft 323 kts 158°
2026-05-08 08:34 -41.88916 146.89297 18478 ft 322 kts 158°
2026-05-08 08:34 -41.90925 146.90605 18051 ft 320 kts 158°
2026-05-08 08:35 -41.92922 146.91907 17654 ft 318 kts 158°
2026-05-08 08:35 -41.94899 146.93197 17288 ft 314 kts 158°
2026-05-08 08:35 -41.96850 146.94487 16922 ft 312 kts 158°
2026-05-08 08:35 -41.98797 146.95764 16545 ft 310 kts 158°
2026-05-08 08:36 -42.00720 146.97013 16175 ft 308 kts 158°
2026-05-08 08:36 -42.02639 146.98261 15819 ft 306 kts 158°
2026-05-08 08:36 -42.04547 146.99504 15461 ft 304 kts 158°
2026-05-08 08:36 -42.06349 147.00682 15128 ft 303 kts 158°
2026-05-08 08:37 -42.08240 147.01919 14761 ft 302 kts 158°
2026-05-08 08:37 -42.10122 147.03152 14403 ft 300 kts 158°
2026-05-08 08:37 -42.11999 147.04383 14048 ft 300 kts 158°
2026-05-08 08:37 -42.13870 147.05610 13667 ft 299 kts 158°
2026-05-08 08:38 -42.15738 147.06837 13273 ft 298 kts 158°
2026-05-08 08:38 -42.17624 147.07952 12894 ft 294 kts 167°
2026-05-08 08:38 -42.19604 147.08510 12550 ft 289 kts 173°
2026-05-08 08:38 -42.21581 147.08952 12190 ft 287 kts 173°
2026-05-08 08:39 -42.22881 147.09240 11967 ft 285 kts 173°
2026-05-08 08:39 -42.24834 147.09682 11623 ft 284 kts 173°
2026-05-08 08:39 -42.26773 147.10131 11280 ft 282 kts 173°
2026-05-08 08:39 -42.28695 147.10585 10945 ft 280 kts 173°
2026-05-08 08:40 -42.30608 147.11042 10612 ft 278 kts 172°
2026-05-08 08:40 -42.32507 147.11498 10299 ft 277 kts 172°
2026-05-08 08:40 -42.34398 147.11955 9950 ft 275 kts 172°
2026-05-08 08:40 -42.36231 147.12400 9952 ft 261 kts 172°
2026-05-08 08:41 -42.38035 147.12837 9348 ft 264 kts 173°
2026-05-08 08:41 -42.39816 147.13270 8953 ft 257 kts 173°
2026-05-08 08:41 -42.41543 147.13692 8642 ft 247 kts 173°
2026-05-08 08:41 -42.43201 147.14098 8365 ft 237 kts 173°
2026-05-08 08:42 -42.44796 147.14484 8099 ft 229 kts 173°
2026-05-08 08:42 -42.46347 147.14862 7836 ft 223 kts 173°
2026-05-08 08:42 -42.47867 147.15234 7609 ft 221 kts 173°
2026-05-08 08:42 -42.49355 147.15597 7412 ft 218 kts 174°
2026-05-08 08:43 -42.50833 147.15958 7152 ft 213 kts 174°
2026-05-08 08:43 -42.52258 147.16307 6897 ft 202 kts 174°
2026-05-08 08:43 -42.53602 147.16890 6666 ft 207 kts 160°
2026-05-08 08:43 -42.54874 147.17804 6412 ft 205 kts 159°
2026-05-08 08:44 -42.56116 147.18686 6177 ft 197 kts 160°
2026-05-08 08:44 -42.57311 147.19527 5968 ft 193 kts 160°
2026-05-08 08:44 -42.58493 147.20358 5727 ft 191 kts 160°
2026-05-08 08:44 -42.59667 147.21172 5483 ft 189 kts 159°
2026-05-08 08:45 -42.60852 147.21990 5299 ft 194 kts 160°
2026-05-08 08:45 -42.62066 147.22825 5098 ft 196 kts 160°
2026-05-08 08:45 -42.63262 147.23738 4856 ft 201 kts 150°
2026-05-08 08:45 -42.64290 147.25068 4634 ft 205 kts 142°
2026-05-08 08:46 -42.65291 147.26449 4369 ft 205 kts 144°
2026-05-08 08:46 -42.66315 147.27813 4142 ft 206 kts 140°
2026-05-08 08:46 -42.67308 147.29199 3918 ft 202 kts 141°
2026-05-08 08:46 -42.68293 147.30503 3670 ft 193 kts 144°
2026-05-08 08:47 -42.69220 147.31724 3447 ft 182 kts 142°
2026-05-08 08:47 -42.70116 147.32948 3275 ft 183 kts 141°
2026-05-08 08:47 -42.70976 147.34126 3107 ft 168 kts 142°
2026-05-08 08:47 -42.71789 147.35230 2883 ft 163 kts 142°
2026-05-08 08:48 -42.72606 147.36267 2693 ft 161 kts 143°
2026-05-08 08:48 -42.73462 147.37309 2556 ft 166 kts 146°
2026-05-08 08:48 -42.74292 147.38390 2458 ft 166 kts 140°
2026-05-08 08:48 -42.75099 147.39534 2222 ft 168 kts 141°
2026-05-08 08:49 -42.75920 147.40661 2015 ft 168 kts 140°
2026-05-08 08:49 -42.76725 147.41798 1824 ft 163 kts 138°
2026-05-08 08:49 -42.77467 147.42928 1510 ft 157 kts 137°
2026-05-08 08:49 -42.78214 147.43970 1225 ft 152 kts 142°
2026-05-08 08:50 -42.79011 147.44898 1050 ft 151 kts 143°
2026-05-08 08:50 -42.79799 147.45887 911 ft 158 kts 138°
2026-05-08 08:50 -42.80521 147.47025 731 ft 159 kts 136°
2026-05-08 08:50 -42.81268 147.48065 509 ft 147 kts 145°
2026-05-08 08:51 -42.82002 147.48972 295 ft 142 kts 139°
2026-05-08 08:51 -42.82683 147.49928 97 ft 142 kts 140°
2026-05-08 08:51 -42.83355 147.50828 23 ft 129 kts 138°
2026-05-08 08:51 -42.83836 147.51477 22 ft 66 kts 135°
2026-05-08 08:52 -42.83990 147.51691 21 ft 25 kts 127°
2026-05-08 08:52 -42.84111 147.51849 23 ft 23 kts 136°
2026-05-08 08:52 -42.84222 147.52004 22 ft 22 kts 134°
2026-05-08 08:52 -42.84325 147.52081 21 ft 12 kts 141°
2026-05-08 08:53 -42.84290 147.52104 22 ft 12 kts 303°
2026-05-08 08:53 -42.84216 147.51994 22 ft 21 kts 316°
2026-05-08 08:53 -42.84092 147.51828 22 ft 29 kts 314°
2026-05-08 08:53 -42.83937 147.51616 23 ft 32 kts 315°
2026-05-08 08:54 -42.83805 147.51438 23 ft 22 kts 315°
2026-05-08 08:54 -42.83804 147.51272 21 ft 21 kts 223°
2026-05-08 08:54 -42.83905 147.51139 21 ft 20 kts 224°
2026-05-08 08:54 -42.83931 147.50988 21 ft 19 kts 318°
2026-05-08 08:55 -42.83838 147.50873 21 ft 17 kts 320°
2026-05-08 08:55 -42.83740 147.50796 21 ft 16 kts 331°
2026-05-08 08:55 -42.83662 147.50703 21 ft 11 kts 311°
2026-05-08 08:55 -42.83668 147.50646 21 ft 5 kts 229°
2026-05-08 08:56 -42.83678 147.50631 23 ft 1 kts 226°
2026-05-08 08:56 -42.83679 147.50630 22 ft 0 kts 226°